Terminal Aerodrome Forecast
Issued by NWS Wilmington, OH

Current Version | Previous Version | Graphics & Text | Print | Product List | Glossary Off
Versions: 1 2 3 4 5 6 7 8 9 10 11 12 13 14 15 16 17 18 19 20

000
FTUS41 KILN 310300 AAC
TAFCMH
TAF AMD
KCMH 310333Z 3104/3124 20004KT P6SM BKN050
      TEMPO 3104/3106 4SM -TSRA BR OVC035CB
     FM310600 24004KT P6SM SCT080
     FM311500 24006KT P6SM SCT040
     FM312300 26003KT P6SM SKC=

USA.gov is the U.S. government's official web portal to all federal, state and local government web resources and services.